This is the latest recevied weather packets stored in our database for station/object KA3WVU. If no packets are shown the sender has not sent any weather packets the latest 10 day(s).
| Time | Temp. | Humidity | Pressure | Rain* | Wind** | Luminosity | Snow |
|---|---|---|---|---|---|---|---|
| 1777307530 | 17.22° C | 45% | 1023 hPa | 0 mm | - | 427 W/m² | - |
| 1777307227 | 16.67° C | 49% | 1022.8 hPa | 0 mm | - | 377 W/m² | - |
| 1777306924 | 16.11° C | 47% | 1023.2 hPa | 0 mm | - | 427 W/m² | - |
| 1777306621 | 16.11° C | 48% | 1023.3 hPa | 0 mm | - | 162 W/m² | - |
| 1777306316 | 16.11° C | 49% | 1023.1 hPa | 0 mm | - | 99 W/m² | - |
| 1777306011 | 16.11° C | 50% | 1023.5 hPa | 0 mm | - | 46 W/m² | - |
| 1777305709 | 15.56° C | 53% | 1023.5 hPa | 0 mm | - | 56 W/m² | - |
| 1777305405 | 15.56° C | 53% | 1023.5 hPa | 0 mm | - | 55 W/m² | - |
| 1777305099 | 15° C | 54% | 1023.6 hPa | 0 mm | - | 294 W/m² | - |
| 1777304794 | 15° C | 59% | 1023.8 hPa | 0 mm | - | 337 W/m² | - |
| 1777304492 | 14.44° C | 59% | 1023.6 hPa | 0 mm | - | 72 W/m² | - |
| 1777304189 | 14.44° C | 60% | 1023.7 hPa | 0 mm | - | 142 W/m² | - |
| 1777303886 | 14.44° C | 60% | 1023.5 hPa | 0 mm | - | 355 W/m² | - |
| 1777303583 | 14.44° C | 59% | 1023.8 hPa | 0 mm | - | 585 W/m² | - |
| 1777303281 | 14.44° C | 59% | 1023.7 hPa | 0 mm | - | 428 W/m² | - |
| 1777302978 | 13.89° C | 62% | 1023.9 hPa | 0 mm | - | 639 W/m² | - |
| 1777302674 | 13.89° C | 61% | 1023.9 hPa | 0 mm | - | 438 W/m² | - |
| 1777302373 | 14.44° C | 60% | 1023.6 hPa | 0 mm | - | 572 W/m² | - |
| 1777302071 | 14.44° C | 60% | 1023.6 hPa | 0 mm | - | 670 W/m² | - |
| 1777301769 | 13.89° C | 62% | 1023.5 hPa | 0 mm | - | 613 W/m² | - |
| 1777301465 | 13.89° C | 62% | 1023.5 hPa | 0 mm | - | 542 W/m² | - |
| 1777301162 | 13.89° C | 62% | 1023.5 hPa | 0 mm | - | 639 W/m² | - |
| 1777300859 | 13.89° C | 65% | 1023.7 hPa | 0 mm | - | 635 W/m² | - |
| 1777300557 | 13.33° C | 65% | 1023.7 hPa | 0 mm | - | 624 W/m² | - |
| 1777300254 | 12.78° C | 66% | 1023.7 hPa | 0 mm | - | 613 W/m² | - |
* Rain latest hour (hover to see other rain measurements)
** Current wind speed in m/s (hover to see current wind gust speed)